Adelanto, California, United States (92301)
Lat: 34.58N, Lon: 117.41W
Wx Zone: CAZ060
Local Info
Past Weather Observations for Sunday, May 17, 2015

NOTE: This archive is for the closest National Weather Service station to Adelanto. Information may differ from the station used for current weather conditions.

Click here for Long-term Archive

Time Weather Temperature Dewpoint Humidity Pressure Winds Precip Visibility
23:55
Partly Cloudy
55°F / 13°C 45°F / 7°C 67% 30.01 in
(1016 mb)
S 13.8 mph
(S 22 kph)
- 10SM
23:35
Overcast
55°F / 13°C 45°F / 7°C 67% 30.01 in
(1016 mb)
S 11.5 mph
(S 19 kph)
- 10SM
23:15
Mostly Cloudy
57°F / 14°C 43°F / 6°C 59% 30.01 in
(1016 mb)
SW 5.8 mph
(SW 9 kph)
- 10SM
22:55
Partly Cloudy
57°F / 14°C 43°F / 6°C 59% 30.04 in
(1017 mb)
SW 3.5 mph
(SW 6 kph)
- 10SM
22:35
Partly Cloudy
57°F / 14°C 43°F / 6°C 59% 30.01 in
(1016 mb)
SW 5.8 mph
(SW 9 kph)
- 10SM
22:15
Partly Cloudy
57°F / 14°C 43°F / 6°C 59% 30.01 in
(1016 mb)
SSW 8.1 mph
(SSW 13 kph)
- 10SM
21:55
Partly Cloudy
57°F / 14°C 43°F / 6°C 59% 30.04 in
(1017 mb)
SSW 8.1 mph
(SSW 13 kph)
- 10SM
21:35
Partly Cloudy
57°F / 14°C 43°F / 6°C 59% 30.04 in
(1017 mb)
SW 6.9 mph
(SW 11 kph)
- 10SM
21:15
Partly Cloudy
59°F / 15°C 43°F / 6°C 55% 30.04 in
(1017 mb)
SSW 5.8 mph
(SSW 9 kph)
- 10SM
20:55
Partly Cloudy
59°F / 15°C 43°F / 6°C 55% 30.04 in
(1017 mb)
SW 4.6 mph
(SW 7 kph)
- 10SM
20:35
Partly Cloudy
61°F / 16°C 43°F / 6°C 52% 30.01 in
(1016 mb)
SW 10.4 mph
(SW 17 kph)
- 10SM
20:15
Partly Cloudy
61°F / 16°C 43°F / 6°C 52% 30.01 in
(1016 mb)
SW 10.4 mph
(SW 17 kph)
- 10SM
19:55
Partly Cloudy
61°F / 16°C 45°F / 7°C 55% 30.01 in
(1016 mb)
S 15 mph
(S 24 kph)
- 10SM
19:35
Partly Cloudy
61°F / 16°C 45°F / 7°C 55% 29.98 in
(1015 mb)
S 16.1 mph
(S 26 kph)
- 10SM
19:15
Partly Cloudy
63°F / 17°C 43°F / 6°C 49% 29.98 in
(1015 mb)
S 17.3 mph
(S 28 kph)
- 10SM
18:55
Partly Cloudy
63°F / 17°C 43°F / 6°C 49% 29.98 in
(1015 mb)
S 19.6 mph
(S 32 kph)
- 10SM
18:35
Partly Cloudy
64°F / 18°C 41°F / 5°C 43% 29.98 in
(1015 mb)
S 16.1 mph
(S 26 kph)
- 10SM
18:15
Mostly Cloudy
64°F / 18°C 39°F / 4°C 40% 29.95 in
(1014 mb)
SSE 18.4 mph
(SSE 30 kph)
- 10SM
17:55
Mostly Cloudy
66°F / 19°C 37°F / 3°C 35% 29.95 in
(1014 mb)
S 24.2 mph
(S 39 kph)
- 10SM
17:35
Overcast
66°F / 19°C 37°F / 3°C 35% 29.95 in
(1014 mb)
S 21.9 mph
(S 35 kph)
- 10SM
17:15
Mostly Cloudy
68°F / 20°C 37°F / 3°C 33% 29.95 in
(1014 mb)
S 23 mph
(S 37 kph)
- 10SM
16:55
Mostly Cloudy
70°F / 21°C 37°F / 3°C 31% 29.95 in
(1014 mb)
S 25.3 mph
(S 41 kph)
- 10SM
16:35
Clear
70°F / 21°C 36°F / 2°C 29% 29.95 in
(1014 mb)
S 24.2 mph
(S 39 kph)
- 10SM
16:15
Clear
70°F / 21°C 30°F / -1°C 23% 29.95 in
(1014 mb)
S 23 mph
(S 37 kph)
- 10SM
15:55
Partly Cloudy
72°F / 22°C 27°F / -3°C 19% 29.95 in
(1014 mb)
S 19.6 mph
(S 32 kph)
- 10SM
15:35
Partly Cloudy
72°F / 22°C 27°F / -3°C 19% 29.95 in
(1014 mb)
S 20.7 mph
(S 33 kph)
- 10SM
15:15
Clear
72°F / 22°C 30°F / -1°C 22% 29.95 in
(1014 mb)
S 18.4 mph
(S 30 kph)
- 10SM
14:55
Clear
72°F / 22°C 32°F / 0°C 23% 29.95 in
(1014 mb)
S 18.4 mph
(S 30 kph)
- 10SM
14:35
Clear
73°F / 23°C 34°F / 1°C 23% 29.95 in
(1014 mb)
S 19.6 mph
(S 32 kph)
- 10SM
14:15
Clear
73°F / 23°C 36°F / 2°C 25% 29.95 in
(1014 mb)
S 20.7 mph
(S 33 kph)
- 10SM
13:55
Clear
73°F / 23°C 32°F / 0°C 22% 29.98 in
(1015 mb)
S 18.4 mph
(S 30 kph)
- 10SM
13:35
Clear
73°F / 23°C 34°F / 1°C 23% 29.95 in
(1014 mb)
S 16.1 mph
(S 26 kph)
- 10SM
13:15
Clear
73°F / 23°C 36°F / 2°C 25% 29.98 in
(1015 mb)
SSE 10.4 mph
(SSE 17 kph)
- 10SM
12:55
Clear
73°F / 23°C 36°F / 2°C 25% 29.98 in
(1015 mb)
SSE 5.8 mph
(SSE 9 kph)
- 10SM
12:35
Clear
73°F / 23°C 34°F / 1°C 23% 29.98 in
(1015 mb)
S 9.2 mph
(S 15 kph)
- 10SM
12:15
Clear
73°F / 23°C 36°F / 2°C 25% 29.98 in
(1015 mb)
SSE 6.9 mph
(SSE 11 kph)
- 10SM
11:55
Clear
72°F / 22°C 36°F / 2°C 27% 29.98 in
(1015 mb)
E 4.6 mph
(E 7 kph)
- 10SM
11:35
Clear
72°F / 22°C 36°F / 2°C 27% 30.01 in
(1016 mb)
SSE 3.5 mph
(SSE 6 kph)
- 10SM
11:15
Clear
70°F / 21°C 36°F / 2°C 29% 30.01 in
(1016 mb)
Calm - 10SM
10:55
Clear
70°F / 21°C 36°F / 2°C 29% 30.01 in
(1016 mb)
S 3.5 mph
(S 6 kph)
- 10SM
10:35
Clear
68°F / 20°C 34°F / 1°C 28% 30.01 in
(1016 mb)
SSE 4.6 mph
(SSE 7 kph)
- 10SM
10:15
Clear
68°F / 20°C 34°F / 1°C 28% 30.01 in
(1016 mb)
SSE 6.9 mph
(SSE 11 kph)
- 10SM
09:55
Clear
66°F / 19°C 36°F / 2°C 32% 30.01 in
(1016 mb)
Calm - 10SM
09:35
Clear
64°F / 18°C 36°F / 2°C 34% 30.01 in
(1016 mb)
Calm - 10SM
09:15
Clear
64°F / 18°C 34°F / 1°C 32% 30.04 in
(1017 mb)
SE 3.5 mph
(SE 6 kph)
- 10SM
08:55
Clear
63°F / 17°C 36°F / 2°C 37% 30.04 in
(1017 mb)
Calm - 10SM
08:35
Clear
63°F / 17°C 37°F / 3°C 39% 30.04 in
(1017 mb)
Calm - 10SM
08:15
Clear
61°F / 16°C 37°F / 3°C 42% 30.04 in
(1017 mb)
Calm - 10SM
07:55
Clear
61°F / 16°C 39°F / 4°C 45% 30.04 in
(1017 mb)
SE 3.5 mph
(SE 6 kph)
- 10SM
07:35
Clear
57°F / 14°C 43°F / 6°C 59% 30.04 in
(1017 mb)
SSE 4.6 mph
(SSE 7 kph)
- 10SM
07:15
Clear
57°F / 14°C 43°F / 6°C 59% 30.04 in
(1017 mb)
SSE 4.6 mph
(SSE 7 kph)
- 10SM
06:55
Clear
55°F / 13°C 43°F / 6°C 63% 30.04 in
(1017 mb)
SSE 4.6 mph
(SSE 7 kph)
- 10SM
06:35
Clear
54°F / 12°C 45°F / 7°C 72% 30.04 in
(1017 mb)
SSE 8.1 mph
(SSE 13 kph)
- 10SM
06:15
Clear
52°F / 11°C 43°F / 6°C 72% 30.01 in
(1016 mb)
SSE 8.1 mph
(SSE 13 kph)
- 10SM
05:55
Clear
52°F / 11°C 43°F / 6°C 72% 30.01 in
(1016 mb)
SSE 8.1 mph
(SSE 13 kph)
- 10SM
05:35
Clear
50°F / 10°C 43°F / 6°C 76% 30.01 in
(1016 mb)
SSE 8.1 mph
(SSE 13 kph)
- 10SM
05:15
Clear
52°F / 11°C 43°F / 6°C 72% 30.01 in
(1016 mb)
SSE 9.2 mph
(SSE 15 kph)
- 10SM
04:55
Clear
48°F / 9°C 43°F / 6°C 82% 29.98 in
(1015 mb)
S 8.1 mph
(S 13 kph)
- 10SM
04:35
Clear
50°F / 10°C 43°F / 6°C 76% 29.98 in
(1015 mb)
SSE 6.9 mph
(SSE 11 kph)
- 10SM
04:15
Clear
48°F / 9°C 43°F / 6°C 82% 29.98 in
(1015 mb)
S 5.8 mph
(S 9 kph)
- 10SM
03:55
Clear
50°F / 10°C 43°F / 6°C 76% 29.98 in
(1015 mb)
SSE 8.1 mph
(SSE 13 kph)
- 10SM
03:35
Clear
50°F / 10°C 43°F / 6°C 76% 29.98 in
(1015 mb)
S 6.9 mph
(S 11 kph)
- 10SM
03:15
Clear
50°F / 10°C 43°F / 6°C 76% 29.98 in
(1015 mb)
SSE 8.1 mph
(SSE 13 kph)
- 10SM
02:55
Clear
48°F / 9°C 43°F / 6°C 82% 29.98 in
(1015 mb)
S 5.8 mph
(S 9 kph)
- 10SM
02:35
Clear
50°F / 10°C 43°F / 6°C 76% 29.98 in
(1015 mb)
S 4.6 mph
(S 7 kph)
- 10SM
02:15
Clear
48°F / 9°C 41°F / 5°C 76% 29.98 in
(1015 mb)
S 4.6 mph
(S 7 kph)
- 10SM
01:55
Clear
48°F / 9°C 41°F / 5°C 76% 29.98 in
(1015 mb)
S 4.6 mph
(S 7 kph)
- 10SM
01:35
Clear
50°F / 10°C 43°F / 6°C 76% 29.98 in
(1015 mb)
S 4.6 mph
(S 7 kph)
- 10SM
01:15
Clear
50°F / 10°C 43°F / 6°C 76% 29.98 in
(1015 mb)
S 3.5 mph
(S 6 kph)
- 10SM
00:55
Clear
50°F / 10°C 43°F / 6°C 76% 29.98 in
(1015 mb)
Calm - 10SM
00:35
Clear
52°F / 11°C 43°F / 6°C 72% 29.98 in
(1015 mb)
SSE 3.5 mph
(SSE 6 kph)
- 10SM
00:15
Clear
54°F / 12°C 43°F / 6°C 67% 29.98 in
(1015 mb)
S 6.9 mph
(S 11 kph)
- 10SM
Time Weather Temperature Dewpoint Humidity Pressure Winds Precip Visibility


Weather for websites

WeatherForYou.com, LLC is not responsible for any damages or problems caused by this service. Current weather conditions are obtained from the closest station including government and personal stations which may have varying degrees of accuracy. Weather forecasts are derived from the NOAA NDFD. Like all things, this site belongs to Jesus Christ... He just trusts us to maintain it. If you have any questions or comments email webmaster@weatherforyou.com

Copyright © 2015, WeatherForYou.com LLC. All rights reserved.